Simultaneous Nadir Overpasses (SNOs) Predictions

Prediction of SNOs between AQUA and METOP-C Satellite Orbit:

Table of predicted SNOs for the next 14.0 days since TLE Epoch: 5/10/2025
Index Date (AQUA) Time (AQUA) Lat,Lon (AQUA) SZA (AQUA ) Date (METOP-C) Time (METOP-C) Lat,Lon (METOP-C) SZA (METOP-C ) Distance(km) Time Diff (sec)
1 05/10/2025 23:03:28 76.48,-163.55 58.55 05/10/2025 23:02:22 76.49,-163.53 58.55 0.47 66
2 05/10/2025 23:52:46 -76.52, 3.99 121.43 05/10/2025 23:53:02 -76.55, 4.03 121.40 2.99 16
3 05/13/2025 11:51:52 76.52, 4.28 57.95 05/13/2025 11:51:20 76.51, 4.30 57.94 2.01 32
4 05/13/2025 12:41:10 -76.56, 171.84 122.02 05/13/2025 12:42:00 -76.57, 171.87 122.01 1.32 50
5 05/15/2025 23:50:54 -76.47, 4.78 122.69 05/15/2025 23:49:41 -76.37, 4.25 122.80 17.46 73
6 05/16/2025 00:40:15 76.57, 172.11 57.39 05/16/2025 00:40:17 76.56, 172.28 57.40 4.33 2
7 05/16/2025 01:29:43 -77.06, -22.05 122.14 05/16/2025 01:30:47 -77.07, -18.40 122.08 90.74 64
8 05/18/2025 12:39:16 -76.51, 172.63 123.23 05/18/2025 12:38:36 -76.52, 172.53 123.22 2.91 40
9 05/18/2025 13:28:36 76.56, -19.89 56.82 05/18/2025 13:29:15 76.57, -19.94 56.84 1.71 39
10 05/21/2025 00:38:09 76.04, 174.50 55.82 05/21/2025 00:37:05 75.95, 170.95 55.67 95.93 64
11 05/21/2025 01:27:37 -76.54, -19.52 123.72 05/21/2025 01:27:33 -76.56, -19.55 123.70 1.93 4
12 05/21/2025 02:16:57 76.65, 147.78 56.38 05/21/2025 02:18:09 76.70, 148.33 56.45 15.30 72
13 05/23/2025 13:26:37 76.51, -19.10 55.77 05/23/2025 13:25:49 76.53, -19.22 55.78 3.59 48
14 05/23/2025 14:15:56 -76.58, 148.34 124.18 05/23/2025 14:16:29 -76.59, 148.35 124.16 1.55 33



Historial Predications of SNOs between AQUA and METOP-C
